TimeAKST,TemperatureF,Dew PointF,Humidity,Sea Level PressureIn,VisibilityMPH,Wind Direction,Wind SpeedMPH,Gust SpeedMPH,PrecipitationIn,Events,Conditions,WindDirDegrees,DateUTC
12:53 AM,14.0,6.1,71,29.87,10.0,ENE,8.1,-,N/A,,Clear,60,2013-02-02 09:53:00
1:53 AM,15.1,7.0,70,29.84,10.0,ENE,6.9,-,N/A,,Clear,60,2013-02-02 10:53:00
3:53 AM,17.1,7.0,65,29.79,10.0,NE,9.2,-,N/A,,Clear,40,2013-02-02 12:53:00
4:53 AM,17.1,6.1,62,29.77,10.0,NE,9.2,-,N/A,,Clear,40,2013-02-02 13:53:00
5:53 AM,10.0,1.9,70,29.75,10.0,Calm,Calm,-,N/A,,Clear,0,2013-02-02 14:53:00
6:53 AM,18.0,5.0,57,29.71,10.0,NE,8.1,-,N/A,,Clear,50,2013-02-02 15:53:00
7:53 AM,8.1,1.0,73,29.70,10.0,Calm,Calm,-,N/A,,Clear,0,2013-02-02 16:53:00
8:53 AM,7.0,1.0,77,29.70,10.0,WNW,3.5,-,N/A,,Clear,300,2013-02-02 17:53:00
9:53 AM,8.1,1.0,73,29.70,10.0,NW,6.9,-,N/A,,Clear,320,2013-02-02 18:53:00
10:53 AM,8.1,1.0,73,29.70,10.0,WNW,5.8,-,N/A,,Clear,300,2013-02-02 19:53:00
11:53 AM,8.1,-0.0,70,29.70,10.0,NW,5.8,-,N/A,,Clear,320,2013-02-02 20:53:00
12:53 PM,8.1,-0.0,70,29.70,10.0,NW,9.2,-,N/A,,Clear,320,2013-02-02 21:53:00
1:53 PM,8.1,-0.0,70,29.68,10.0,WNW,8.1,-,N/A,,Clear,300,2013-02-02 22:53:00
3:53 PM,8.1,-0.0,70,29.65,10.0,NNW,6.9,-,N/A,,Clear,330,2013-02-03 00:53:00
4:53 PM,7.0,-0.0,73,29.65,10.0,NW,6.9,-,N/A,,Clear,310,2013-02-03 01:53:00
5:53 PM,7.0,-0.0,73,29.64,10.0,NW,5.8,-,N/A,,Clear,310,2013-02-03 02:53:00
6:53 PM,6.1,-0.9,73,29.62,10.0,NW,4.6,-,N/A,,Clear,310,2013-02-03 03:53:00
7:53 PM,7.0,-0.0,73,29.61,10.0,WNW,4.6,-,N/A,,Clear,290,2013-02-03 04:53:00
8:53 PM,6.1,-0.9,73,29.59,10.0,Calm,Calm,-,N/A,,Clear,0,2013-02-03 05:53:00
9:53 PM,7.0,-0.0,73,29.58,10.0,NW,3.5,-,N/A,,Partly Cloudy,320,2013-02-03 06:53:00
10:53 PM,7.0,-0.9,70,29.57,10.0,NNE,3.5,-,N/A,,Clear,20,2013-02-03 07:53:00
11:53 PM,8.1,-0.0,70,29.55,10.0,NW,5.8,-,N/A,,Clear,310,2013-02-03 08:53:00